Year,Month,Day,Hour,Minute,Value (Times are PST for temperature in C)
2008,07,24,00,00,10.90
2008,07,24,00,01,10.90
2008,07,24,00,02,10.90
2008,07,24,00,03,10.90
2008,07,24,00,04,10.90
2008,07,24,00,05,10.90
2008,07,24,00,06,10.90
2008,07,24,00,07,10.90
2008,07,24,00,08,10.80
2008,07,24,00,09,10.80
2008,07,24,00,10,10.80
2008,07,24,00,11,10.80
2008,07,24,00,12,10.80
2008,07,24,00,13,10.80
2008,07,24,00,14,10.80
2008,07,24,00,15,10.80
2008,07,24,00,16,10.80
2008,07,24,00,17,10.80
2008,07,24,00,18,10.80
2008,07,24,00,19,10.80
2008,07,24,00,20,10.80
2008,07,24,00,21,10.80
2008,07,24,00,22,10.80
2008,07,24,00,23,10.80
2008,07,24,00,24,10.80
2008,07,24,00,25,10.80
2008,07,24,00,26,10.70
2008,07,24,00,27,10.70
2008,07,24,00,28,10.70
2008,07,24,00,29,10.70
2008,07,24,00,30,10.70
2008,07,24,00,31,10.70
2008,07,24,00,32,10.70
2008,07,24,00,33,10.70
2008,07,24,00,34,10.70
2008,07,24,00,35,10.60
2008,07,24,00,36,10.60
2008,07,24,00,37,10.60
2008,07,24,00,38,10.60
2008,07,24,00,39,10.60
2008,07,24,00,40,10.60
2008,07,24,00,41,10.60
2008,07,24,00,42,10.60
2008,07,24,00,43,10.60
2008,07,24,00,44,10.60
2008,07,24,00,45,10.60
2008,07,24,00,46,10.60
2008,07,24,00,47,10.60
2008,07,24,00,48,10.50
2008,07,24,00,49,10.50
2008,07,24,00,50,10.50
2008,07,24,00,51,10.50
2008,07,24,00,52,10.50
2008,07,24,00,53,10.50
2008,07,24,00,54,10.50
2008,07,24,00,55,10.50
2008,07,24,00,56,10.50
2008,07,24,00,57,10.50
2008,07,24,00,58,10.50
2008,07,24,00,59,10.50
2008,07,24,01,00,10.50
2008,07,24,01,01,10.50
2008,07,24,01,02,10.50
2008,07,24,01,03,10.50
2008,07,24,01,04,10.50
2008,07,24,01,05,10.50
2008,07,24,01,06,10.50
2008,07,24,01,07,10.50
2008,07,24,01,08,10.50
2008,07,24,01,09,10.50
2008,07,24,01,10,10.50
2008,07,24,01,11,10.50
2008,07,24,01,12,10.50
2008,07,24,01,13,10.50
2008,07,24,01,14,10.50
2008,07,24,01,15,10.50
2008,07,24,01,16,10.50
2008,07,24,01,17,10.50
2008,07,24,01,18,10.50
2008,07,24,01,19,10.50
2008,07,24,01,20,10.50
2008,07,24,01,21,10.50
2008,07,24,01,22,10.50
2008,07,24,01,23,10.50
2008,07,24,01,24,10.50
2008,07,24,01,25,10.50
2008,07,24,01,26,10.50
2008,07,24,01,27,10.50
2008,07,24,01,28,10.50
2008,07,24,01,29,10.50
2008,07,24,01,30,10.50
2008,07,24,01,31,10.50
2008,07,24,01,32,10.50
2008,07,24,01,33,10.40
2008,07,24,01,34,10.40
2008,07,24,01,35,10.40
2008,07,24,01,36,10.40
2008,07,24,01,37,10.30
2008,07,24,01,38,10.30
2008,07,24,01,39,10.30
2008,07,24,01,40,10.30
2008,07,24,01,41,10.30
2008,07,24,01,42,10.20
2008,07,24,01,43,10.20
2008,07,24,01,44,10.20
2008,07,24,01,45,10.20
2008,07,24,01,46,10.20
2008,07,24,01,47,10.20
2008,07,24,01,48,10.20
2008,07,24,01,49,10.20
2008,07,24,01,50,10.20
2008,07,24,01,51,10.20
2008,07,24,01,52,10.20
2008,07,24,01,53,10.20
2008,07,24,01,54,10.20
2008,07,24,01,55,10.20
2008,07,24,01,56,10.20
2008,07,24,01,57,10.20
2008,07,24,01,58,10.20
2008,07,24,01,59,10.20
2008,07,24,02,00,10.20
2008,07,24,02,01,10.20
2008,07,24,02,02,10.20
2008,07,24,02,03,10.20
2008,07,24,02,04,10.20
2008,07,24,02,05,10.20
2008,07,24,02,06,10.10
2008,07,24,02,07,10.10
2008,07,24,02,08,10.10
2008,07,24,02,09,10.10
2008,07,24,02,10,10.10
2008,07,24,02,11,10.10
2008,07,24,02,12,10.00
2008,07,24,02,13,10.00
2008,07,24,02,14,10.00
2008,07,24,02,15,10.00
2008,07,24,02,16,10.00
2008,07,24,02,17,10.00
2008,07,24,02,18,10.00
2008,07,24,02,19,10.00
2008,07,24,02,20,9.90
2008,07,24,02,21,9.90
2008,07,24,02,22,9.90
2008,07,24,02,23,9.90
2008,07,24,02,24,9.90
2008,07,24,02,25,9.90
2008,07,24,02,26,9.90
2008,07,24,02,27,9.90
2008,07,24,02,28,9.80
2008,07,24,02,29,9.80
2008,07,24,02,30,9.80
2008,07,24,02,31,9.80
2008,07,24,02,32,9.80
2008,07,24,02,33,9.80
2008,07,24,02,34,9.80
2008,07,24,02,35,9.80
2008,07,24,02,36,9.80
2008,07,24,02,37,9.70
2008,07,24,02,38,9.70
2008,07,24,02,39,9.80
2008,07,24,02,40,9.80
2008,07,24,02,41,9.80
2008,07,24,02,42,9.80
2008,07,24,02,43,9.80
2008,07,24,02,44,9.90
2008,07,24,02,45,9.90
2008,07,24,02,46,9.90
2008,07,24,02,47,10.00
2008,07,24,02,48,10.00
2008,07,24,02,49,10.10
2008,07,24,02,50,10.10
2008,07,24,02,51,10.10
2008,07,24,02,52,10.20
2008,07,24,02,53,10.20
2008,07,24,02,54,10.30
2008,07,24,02,55,10.30
2008,07,24,02,56,10.30
2008,07,24,02,57,10.30
2008,07,24,02,58,10.40
2008,07,24,02,59,10.40
2008,07,24,03,00,10.50
2008,07,24,03,01,10.60
2008,07,24,03,02,10.60
2008,07,24,03,03,10.60
2008,07,24,03,04,10.70
2008,07,24,03,05,10.70
2008,07,24,03,06,10.70
2008,07,24,03,07,10.70
2008,07,24,03,08,10.80
2008,07,24,03,09,10.80
2008,07,24,03,10,10.80
2008,07,24,03,11,10.80
2008,07,24,03,12,10.80
2008,07,24,03,13,10.80
2008,07,24,03,14,10.80
2008,07,24,03,15,10.90
2008,07,24,03,16,10.80
2008,07,24,03,17,10.90
2008,07,24,03,18,10.90
2008,07,24,03,19,10.80
2008,07,24,03,20,10.80
2008,07,24,03,21,10.80
2008,07,24,03,22,10.80
2008,07,24,03,23,10.80
2008,07,24,03,24,10.80
2008,07,24,03,25,10.80
2008,07,24,03,26,10.80
2008,07,24,03,27,10.80
2008,07,24,03,28,10.80
2008,07,24,03,29,10.80
2008,07,24,03,30,10.80
2008,07,24,03,31,10.80
2008,07,24,03,32,10.80
2008,07,24,03,33,10.80
2008,07,24,03,34,10.70
2008,07,24,03,35,10.80
2008,07,24,03,36,10.80
2008,07,24,03,37,10.80
2008,07,24,03,38,10.80
2008,07,24,03,39,10.80
2008,07,24,03,40,10.80
2008,07,24,03,41,10.80
2008,07,24,03,42,10.80
2008,07,24,03,43,10.70
2008,07,24,03,44,10.70
2008,07,24,03,45,10.70
2008,07,24,03,46,10.70
2008,07,24,03,47,10.70
2008,07,24,03,48,10.70
2008,07,24,03,49,10.70
2008,07,24,03,50,10.70
2008,07,24,03,51,10.70
2008,07,24,03,52,10.70
2008,07,24,03,53,10.70
2008,07,24,03,54,10.70
2008,07,24,03,55,10.70
2008,07,24,03,56,10.70
2008,07,24,03,57,10.60
2008,07,24,03,58,10.60
2008,07,24,03,59,10.60
2008,07,24,04,00,10.60
2008,07,24,04,01,10.60
2008,07,24,04,02,10.60
2008,07,24,04,03,10.60
2008,07,24,04,04,10.50
2008,07,24,04,05,10.50
2008,07,24,04,06,10.50
2008,07,24,04,07,10.50
2008,07,24,04,08,10.40
2008,07,24,04,09,10.40
2008,07,24,04,10,10.30
2008,07,24,04,11,10.30
2008,07,24,04,12,10.30
2008,07,24,04,13,10.30
2008,07,24,04,14,10.20
2008,07,24,04,15,10.20
2008,07,24,04,16,10.20
2008,07,24,04,17,10.20
2008,07,24,04,18,10.10
2008,07,24,04,19,10.10
2008,07,24,04,20,10.00
2008,07,24,04,21,10.00
2008,07,24,04,22,10.00
2008,07,24,04,23,9.90
2008,07,24,04,24,9.90
2008,07,24,04,25,9.90
2008,07,24,04,26,9.90
2008,07,24,04,27,9.80
2008,07,24,04,28,9.80
2008,07,24,04,29,9.80
2008,07,24,04,30,9.80
2008,07,24,04,31,9.70
2008,07,24,04,32,9.70
2008,07,24,04,33,9.70
2008,07,24,04,34,9.70
2008,07,24,04,35,9.70
2008,07,24,04,36,9.70
2008,07,24,04,37,9.70
2008,07,24,04,38,9.80
2008,07,24,04,39,9.80
2008,07,24,04,40,9.90
2008,07,24,04,41,9.90
2008,07,24,04,42,9.90
2008,07,24,04,43,10.00
2008,07,24,04,44,10.10
2008,07,24,04,45,10.10
2008,07,24,04,46,10.10
2008,07,24,04,47,10.10
2008,07,24,04,48,10.10
2008,07,24,04,49,10.20
2008,07,24,04,50,10.20
2008,07,24,04,51,10.20
2008,07,24,04,52,10.20
2008,07,24,04,53,10.20
2008,07,24,04,54,10.20
2008,07,24,04,55,10.20
2008,07,24,04,56,10.20
2008,07,24,04,57,10.20
2008,07,24,04,58,10.20
2008,07,24,04,59,10.20
2008,07,24,05,00,10.20
2008,07,24,05,01,10.20
2008,07,24,05,02,10.20
2008,07,24,05,03,10.20
2008,07,24,05,04,10.20
2008,07,24,05,05,10.20
2008,07,24,05,06,10.20
2008,07,24,05,07,10.20
2008,07,24,05,08,10.20
2008,07,24,05,09,10.20
2008,07,24,05,10,10.20
2008,07,24,05,11,10.20
2008,07,24,05,12,10.20
2008,07,24,05,13,10.20
2008,07,24,05,14,10.20
2008,07,24,05,15,10.10
2008,07,24,05,16,10.10
2008,07,24,05,17,10.10
2008,07,24,05,18,10.10
2008,07,24,05,19,10.10
2008,07,24,05,20,10.00
2008,07,24,05,21,10.00
2008,07,24,05,22,10.00
2008,07,24,05,23,9.90
2008,07,24,05,24,9.90
2008,07,24,05,25,9.90
2008,07,24,05,26,9.90
2008,07,24,05,27,9.90
2008,07,24,05,28,9.90
2008,07,24,05,29,9.90
2008,07,24,05,30,9.90
2008,07,24,05,31,9.90
2008,07,24,05,32,9.80
2008,07,24,05,33,9.80
2008,07,24,05,34,9.80
2008,07,24,05,35,9.80
2008,07,24,05,36,9.80
2008,07,24,05,37,9.80
2008,07,24,05,38,9.70
2008,07,24,05,39,9.70
2008,07,24,05,40,9.70
2008,07,24,05,41,9.70
2008,07,24,05,42,9.60
2008,07,24,05,43,9.60
2008,07,24,05,44,9.60
2008,07,24,05,45,9.60
2008,07,24,05,46,9.60
2008,07,24,05,47,9.50
2008,07,24,05,48,9.50
2008,07,24,05,49,9.40
2008,07,24,05,50,9.40
2008,07,24,05,51,9.40
2008,07,24,05,52,9.40
2008,07,24,05,53,9.40
2008,07,24,05,54,9.40
2008,07,24,05,55,9.40
2008,07,24,05,56,9.40
2008,07,24,05,57,9.40
2008,07,24,05,58,9.40
2008,07,24,05,59,9.40
2008,07,24,06,00,9.40
2008,07,24,06,01,9.40
2008,07,24,06,02,9.40
2008,07,24,06,03,9.50
2008,07,24,06,04,9.50
2008,07,24,06,05,9.50
2008,07,24,06,06,9.50
2008,07,24,06,07,9.40
2008,07,24,06,08,9.50
2008,07,24,06,09,9.50
2008,07,24,06,10,9.50
2008,07,24,06,11,9.50
2008,07,24,06,12,9.50
2008,07,24,06,13,9.50
2008,07,24,06,14,9.60
2008,07,24,06,15,9.60
2008,07,24,06,16,9.60
2008,07,24,06,17,9.60
2008,07,24,06,18,9.60
2008,07,24,06,19,9.60
2008,07,24,06,20,9.60
2008,07,24,06,21,9.60
2008,07,24,06,22,9.60
2008,07,24,06,23,9.60
2008,07,24,06,24,9.60
2008,07,24,06,25,9.60
2008,07,24,06,26,9.60
2008,07,24,06,27,9.60
2008,07,24,06,28,9.60
2008,07,24,06,29,9.60
2008,07,24,06,30,9.60
2008,07,24,06,31,9.60
2008,07,24,06,32,9.60
2008,07,24,06,33,9.70
2008,07,24,06,34,9.70
2008,07,24,06,35,9.70
2008,07,24,06,36,9.70
2008,07,24,06,37,9.70
2008,07,24,06,38,9.70
2008,07,24,06,39,9.70
2008,07,24,06,40,9.70
2008,07,24,06,41,9.70
2008,07,24,06,42,9.80
2008,07,24,06,43,9.80
2008,07,24,06,44,9.80
2008,07,24,06,45,9.80
2008,07,24,06,46,9.80
2008,07,24,06,47,9.80
2008,07,24,06,48,9.80
2008,07,24,06,49,9.90
2008,07,24,06,50,9.90
2008,07,24,06,51,9.90
2008,07,24,06,52,9.90
2008,07,24,06,53,10.00
2008,07,24,06,54,10.00
2008,07,24,06,55,10.00
2008,07,24,06,56,10.10
2008,07,24,06,57,10.10
2008,07,24,06,58,10.10
2008,07,24,06,59,10.10
2008,07,24,07,00,10.10
2008,07,24,07,01,10.20
2008,07,24,07,02,10.20
2008,07,24,07,03,10.20
2008,07,24,07,04,10.20
2008,07,24,07,05,10.20
2008,07,24,07,06,10.20
2008,07,24,07,07,10.20
2008,07,24,07,08,10.20
2008,07,24,07,09,10.20
2008,07,24,07,10,10.20
2008,07,24,07,11,10.20
2008,07,24,07,12,10.20
2008,07,24,07,13,10.20
2008,07,24,07,14,10.20
2008,07,24,07,15,10.30
2008,07,24,07,16,10.30
2008,07,24,07,17,10.40
2008,07,24,07,18,10.40
2008,07,24,07,19,10.40
2008,07,24,07,20,10.40
2008,07,24,07,21,10.40
2008,07,24,07,22,10.40
2008,07,24,07,23,10.50
2008,07,24,07,24,10.60
2008,07,24,07,25,10.70
2008,07,24,07,26,10.70
2008,07,24,07,27,10.70
2008,07,24,07,28,10.70
2008,07,24,07,29,10.70
2008,07,24,07,30,10.80
2008,07,24,07,31,10.80
2008,07,24,07,32,10.80
2008,07,24,07,33,10.80
2008,07,24,07,34,10.80
2008,07,24,07,35,10.90
2008,07,24,07,36,10.90
2008,07,24,07,37,10.90
2008,07,24,07,38,11.00
2008,07,24,07,39,11.00
2008,07,24,07,40,11.10
2008,07,24,07,41,11.10
2008,07,24,07,42,11.10
2008,07,24,07,43,11.10
2008,07,24,07,44,11.20
2008,07,24,07,45,11.20
2008,07,24,07,46,11.20
2008,07,24,07,47,11.30
2008,07,24,07,48,11.30
2008,07,24,07,49,11.30
2008,07,24,07,50,11.30
2008,07,24,07,51,11.40
2008,07,24,07,52,11.40
2008,07,24,07,53,11.40
2008,07,24,07,54,11.50
2008,07,24,07,55,11.50
2008,07,24,07,56,11.50
2008,07,24,07,57,11.60
2008,07,24,07,58,11.60
2008,07,24,07,59,11.60
2008,07,24,08,00,11.70
2008,07,24,08,01,11.70
2008,07,24,08,02,11.70
2008,07,24,08,03,11.80
2008,07,24,08,04,11.80
2008,07,24,08,05,11.80
2008,07,24,08,06,11.90
2008,07,24,08,07,11.90
2008,07,24,08,08,11.90
2008,07,24,08,09,12.00
2008,07,24,08,10,12.00
2008,07,24,08,11,12.10
2008,07,24,08,12,12.10
2008,07,24,08,13,12.10
2008,07,24,08,14,12.10
2008,07,24,08,15,12.20
2008,07,24,08,16,12.20
2008,07,24,08,17,12.20
2008,07,24,08,18,12.30
2008,07,24,08,19,12.30
2008,07,24,08,20,12.30
2008,07,24,08,21,12.40
2008,07,24,08,22,12.40
2008,07,24,08,23,12.50
2008,07,24,08,24,12.60
2008,07,24,08,25,12.60
2008,07,24,08,26,12.70
2008,07,24,08,27,12.70
2008,07,24,08,28,12.80
2008,07,24,08,29,12.90
2008,07,24,08,30,13.00
2008,07,24,08,31,13.10
2008,07,24,08,32,13.20
2008,07,24,08,33,13.20
2008,07,24,08,34,13.30
2008,07,24,08,35,13.40
2008,07,24,08,36,13.40
2008,07,24,08,37,13.50
2008,07,24,08,38,13.60
2008,07,24,08,39,13.60
2008,07,24,08,40,13.70
2008,07,24,08,41,13.70
2008,07,24,08,42,13.80
2008,07,24,08,43,13.80
2008,07,24,08,44,13.90
2008,07,24,08,45,13.90
2008,07,24,08,46,14.00
2008,07,24,08,47,14.10
2008,07,24,08,48,14.20
2008,07,24,08,49,14.30
2008,07,24,08,50,14.30
2008,07,24,08,51,14.40
2008,07,24,08,52,14.40
2008,07,24,08,53,14.50
2008,07,24,08,54,14.50
2008,07,24,08,55,14.60
2008,07,24,08,56,14.60
2008,07,24,08,57,14.60
2008,07,24,08,58,14.70
2008,07,24,08,59,14.70
2008,07,24,09,00,14.80
2008,07,24,09,01,14.80
2008,07,24,09,02,14.80
2008,07,24,09,03,14.90
2008,07,24,09,04,14.90
2008,07,24,09,05,15.00
2008,07,24,09,06,15.00
2008,07,24,09,07,15.00
2008,07,24,09,08,15.10
2008,07,24,09,09,15.10
2008,07,24,09,10,15.10
2008,07,24,09,11,15.20
2008,07,24,09,12,15.20
2008,07,24,09,13,15.10
2008,07,24,09,14,15.10
2008,07,24,09,15,15.20
2008,07,24,09,16,15.20
2008,07,24,09,17,15.30
2008,07,24,09,18,15.40
2008,07,24,09,19,15.50
2008,07,24,09,20,15.60
2008,07,24,09,21,15.70
2008,07,24,09,22,15.80
2008,07,24,09,23,15.90
2008,07,24,09,24,15.90
2008,07,24,09,25,16.00
2008,07,24,09,26,16.10
2008,07,24,09,27,16.20
2008,07,24,09,28,16.20
2008,07,24,09,29,16.20
2008,07,24,09,30,16.20
2008,07,24,09,31,16.30
2008,07,24,09,32,16.30
2008,07,24,09,33,16.40
2008,07,24,09,34,16.40
2008,07,24,09,35,16.50
2008,07,24,09,36,16.60
2008,07,24,09,37,16.60
2008,07,24,09,38,16.70
2008,07,24,09,39,16.80
2008,07,24,09,40,16.80
2008,07,24,09,41,16.80
2008,07,24,09,42,16.80
2008,07,24,09,43,16.80
2008,07,24,09,44,16.80
2008,07,24,09,45,16.80
2008,07,24,09,46,16.80
2008,07,24,09,47,16.90
2008,07,24,09,48,17.00
2008,07,24,09,49,17.10
2008,07,24,09,50,17.10
2008,07,24,09,51,17.20
2008,07,24,09,52,17.20
2008,07,24,09,53,17.30
2008,07,24,09,54,17.30
2008,07,24,09,55,17.40
2008,07,24,09,56,17.50
2008,07,24,09,57,17.50
2008,07,24,09,58,17.60
2008,07,24,09,59,17.70
2008,07,24,10,00,17.80
2008,07,24,10,01,17.90
2008,07,24,10,02,17.90
2008,07,24,10,03,17.90
2008,07,24,10,04,17.90
2008,07,24,10,05,17.90
2008,07,24,10,06,17.90
2008,07,24,10,07,17.90
2008,07,24,10,08,17.90
2008,07,24,10,09,18.00
2008,07,24,10,10,18.00
2008,07,24,10,11,18.10
2008,07,24,10,12,18.10
2008,07,24,10,13,18.20
2008,07,24,10,14,18.30
2008,07,24,10,15,18.30
2008,07,24,10,16,18.20
2008,07,24,10,17,18.20
2008,07,24,10,18,18.20
2008,07,24,10,19,18.20
2008,07,24,10,20,18.30
2008,07,24,10,21,18.30
2008,07,24,10,22,18.30
2008,07,24,10,23,18.30
2008,07,24,10,24,18.30
2008,07,24,10,25,18.30
2008,07,24,10,26,18.30
2008,07,24,10,27,18.30
2008,07,24,10,28,18.30
2008,07,24,10,29,18.30
2008,07,24,10,30,18.30
2008,07,24,10,31,18.60
2008,07,24,10,32,18.70
2008,07,24,10,33,18.80
2008,07,24,10,34,18.90
2008,07,24,10,35,18.90
2008,07,24,10,36,18.90
2008,07,24,10,37,18.90
2008,07,24,10,38,18.80
2008,07,24,10,39,18.90
2008,07,24,10,40,18.90
2008,07,24,10,41,18.90
2008,07,24,10,42,18.90
2008,07,24,10,43,18.80
2008,07,24,10,44,18.80
2008,07,24,10,45,18.70
2008,07,24,10,46,18.70
2008,07,24,10,47,18.60
2008,07,24,10,48,18.60
2008,07,24,10,49,18.60
2008,07,24,10,50,18.60
2008,07,24,10,51,18.60
2008,07,24,10,52,18.70
2008,07,24,10,53,18.60
2008,07,24,10,54,18.60
2008,07,24,10,55,18.70
2008,07,24,10,56,18.70
2008,07,24,10,57,18.70
2008,07,24,10,58,18.70
2008,07,24,10,59,18.70
2008,07,24,11,00,18.70
2008,07,24,11,01,18.80
2008,07,24,11,02,18.80
2008,07,24,11,03,18.90
2008,07,24,11,04,18.90
2008,07,24,11,05,19.00
2008,07,24,11,06,19.00
2008,07,24,11,07,19.10
2008,07,24,11,08,19.10
2008,07,24,11,09,19.10
2008,07,24,11,10,19.20
2008,07,24,11,11,19.20
2008,07,24,11,12,19.30
2008,07,24,11,13,19.30
2008,07,24,11,14,19.40
2008,07,24,11,15,19.50
2008,07,24,11,16,19.60
2008,07,24,11,17,19.70
2008,07,24,11,18,19.70
2008,07,24,11,19,19.70
2008,07,24,11,20,19.80
2008,07,24,11,21,19.90
2008,07,24,11,22,20.00
2008,07,24,11,23,20.10
2008,07,24,11,24,20.20
2008,07,24,11,25,20.30
2008,07,24,11,26,20.40
2008,07,24,11,27,20.50
2008,07,24,11,28,20.60
2008,07,24,11,29,20.70
2008,07,24,11,30,20.80
2008,07,24,11,31,20.90
2008,07,24,11,32,20.90
2008,07,24,11,33,21.00
2008,07,24,11,34,21.10
2008,07,24,11,35,21.10
2008,07,24,11,36,21.10
2008,07,24,11,37,21.20
2008,07,24,11,38,21.20
2008,07,24,11,39,21.30
2008,07,24,11,40,21.30
2008,07,24,11,41,21.40
2008,07,24,11,42,21.40
2008,07,24,11,43,21.40
2008,07,24,11,44,21.40
2008,07,24,11,45,21.40
2008,07,24,11,46,21.40
2008,07,24,11,47,21.40
2008,07,24,11,48,21.30
2008,07,24,11,49,21.20
2008,07,24,11,50,21.00
2008,07,24,11,51,20.90
2008,07,24,11,52,20.90
2008,07,24,11,53,20.90
2008,07,24,11,54,20.90
2008,07,24,11,55,20.90
2008,07,24,11,56,20.90
2008,07,24,11,57,21.00
2008,07,24,11,58,21.10
2008,07,24,11,59,21.20
2008,07,24,12,00,21.20
2008,07,24,12,01,21.20
2008,07,24,12,02,21.10
2008,07,24,12,03,20.90
2008,07,24,12,04,20.70
2008,07,24,12,05,20.40
2008,07,24,12,06,20.20
2008,07,24,12,07,20.10
2008,07,24,12,08,20.00
2008,07,24,12,09,20.00
2008,07,24,12,10,20.00
2008,07,24,12,11,20.10
2008,07,24,12,12,20.20
2008,07,24,12,13,20.30
2008,07,24,12,14,20.20
2008,07,24,12,15,20.20
2008,07,24,12,16,20.20
2008,07,24,12,17,20.30
2008,07,24,12,18,20.50
2008,07,24,12,19,20.60
2008,07,24,12,20,20.70
2008,07,24,12,21,20.80
2008,07,24,12,22,20.90
2008,07,24,12,23,20.90
2008,07,24,12,24,20.80
2008,07,24,12,25,20.80
2008,07,24,12,26,20.80
2008,07,24,12,27,20.80
2008,07,24,12,28,20.90
2008,07,24,12,29,20.90
2008,07,24,12,30,21.00
2008,07,24,12,31,21.00
2008,07,24,12,32,21.10
2008,07,24,12,33,21.20
2008,07,24,12,34,21.30
2008,07,24,12,35,21.50
2008,07,24,12,36,21.60
2008,07,24,12,37,21.60
2008,07,24,12,38,21.70
2008,07,24,12,39,21.70
2008,07,24,12,40,21.70
2008,07,24,12,41,21.70
2008,07,24,12,42,21.80
2008,07,24,12,43,21.80
2008,07,24,12,44,21.80
2008,07,24,12,45,21.60
2008,07,24,12,46,21.50
2008,07,24,12,47,21.50
2008,07,24,12,48,21.40
2008,07,24,12,49,21.40
2008,07,24,12,50,21.40
2008,07,24,12,51,21.50
2008,07,24,12,52,21.60
2008,07,24,12,53,21.60
2008,07,24,12,54,21.60
2008,07,24,12,55,21.40
2008,07,24,12,56,21.20
2008,07,24,12,57,21.00
2008,07,24,12,58,20.90
2008,07,24,12,59,20.90
2008,07,24,13,00,21.00
2008,07,24,13,01,21.00
2008,07,24,13,02,21.10
2008,07,24,13,03,21.20
2008,07,24,13,04,21.30
2008,07,24,13,05,21.40
2008,07,24,13,06,21.50
2008,07,24,13,07,21.60
2008,07,24,13,08,21.80
2008,07,24,13,09,21.80
2008,07,24,13,10,21.90
2008,07,24,13,11,22.10
2008,07,24,13,12,22.20
2008,07,24,13,13,22.20
2008,07,24,13,14,22.20
2008,07,24,13,15,22.30
2008,07,24,13,16,22.40
2008,07,24,13,17,22.50
2008,07,24,13,18,22.60
2008,07,24,13,19,22.70
2008,07,24,13,20,22.80
2008,07,24,13,21,22.90
2008,07,24,13,22,23.00
2008,07,24,13,23,23.10
2008,07,24,13,24,23.10
2008,07,24,13,25,23.10
2008,07,24,13,26,23.20
2008,07,24,13,27,23.20
2008,07,24,13,28,23.30
2008,07,24,13,29,23.30
2008,07,24,13,30,23.30
2008,07,24,13,31,23.30
2008,07,24,13,32,23.30
2008,07,24,13,33,23.30
2008,07,24,13,34,23.30
2008,07,24,13,35,23.30
2008,07,24,13,36,23.20
2008,07,24,13,37,23.00
2008,07,24,13,38,22.80
2008,07,24,13,39,22.60
2008,07,24,13,40,22.60
2008,07,24,13,41,22.50
2008,07,24,13,42,22.50
2008,07,24,13,43,22.40
2008,07,24,13,44,22.50
2008,07,24,13,45,22.60
2008,07,24,13,46,22.80
2008,07,24,13,47,22.90
2008,07,24,13,48,22.90
2008,07,24,13,49,22.90
2008,07,24,13,50,23.00
2008,07,24,13,51,23.10
2008,07,24,13,52,23.20
2008,07,24,13,53,23.30
2008,07,24,13,54,23.40
2008,07,24,13,55,23.50
2008,07,24,13,56,23.60
2008,07,24,13,57,23.60
2008,07,24,13,58,23.60
2008,07,24,13,59,23.50
2008,07,24,14,00,23.50
2008,07,24,14,01,23.50
2008,07,24,14,02,23.50
2008,07,24,14,03,23.60
2008,07,24,14,04,23.60
2008,07,24,14,05,23.60
2008,07,24,14,06,23.60
2008,07,24,14,07,23.60
2008,07,24,14,08,23.50
2008,07,24,14,09,23.40
2008,07,24,14,10,23.30
2008,07,24,14,11,23.30
2008,07,24,14,12,23.30
2008,07,24,14,13,23.30
2008,07,24,14,14,23.30
2008,07,24,14,15,23.30
2008,07,24,14,16,23.30
2008,07,24,14,17,23.30
2008,07,24,14,18,23.30
2008,07,24,14,19,23.30
2008,07,24,14,20,23.40
2008,07,24,14,21,23.50
2008,07,24,14,22,23.50
2008,07,24,14,23,23.50
2008,07,24,14,24,23.40
2008,07,24,14,25,23.40
2008,07,24,14,26,23.40
2008,07,24,14,27,23.50
2008,07,24,14,28,23.60
2008,07,24,14,29,23.70
2008,07,24,14,30,23.70
2008,07,24,14,31,23.80
2008,07,24,14,32,23.90
2008,07,24,14,33,24.00
2008,07,24,14,34,24.10
2008,07,24,14,35,24.20
2008,07,24,14,36,24.20
2008,07,24,14,37,24.20
2008,07,24,14,38,24.10
2008,07,24,14,39,24.10
2008,07,24,14,40,24.00
2008,07,24,14,41,24.00
2008,07,24,14,42,23.90
2008,07,24,14,43,23.90
2008,07,24,14,44,23.80
2008,07,24,14,45,23.70
2008,07,24,14,46,23.50
2008,07,24,14,47,23.40
2008,07,24,14,48,23.50
2008,07,24,14,49,23.60
2008,07,24,14,50,23.70
2008,07,24,14,51,23.80
2008,07,24,14,52,24.00
2008,07,24,14,53,24.10
2008,07,24,14,54,24.20
2008,07,24,14,55,24.30
2008,07,24,14,56,24.30
2008,07,24,14,57,24.40
2008,07,24,14,58,24.50
2008,07,24,14,59,24.50
2008,07,24,15,00,24.50
2008,07,24,15,01,24.50
2008,07,24,15,02,24.50
2008,07,24,15,03,24.50
2008,07,24,15,04,24.60
2008,07,24,15,05,24.60
2008,07,24,15,06,24.60
2008,07,24,15,07,24.60
2008,07,24,15,08,24.60
2008,07,24,15,09,24.70
2008,07,24,15,10,24.70
2008,07,24,15,11,24.80
2008,07,24,15,12,24.90
2008,07,24,15,13,24.90
2008,07,24,15,14,24.90
2008,07,24,15,15,24.90
2008,07,24,15,16,24.90
2008,07,24,15,17,24.90
2008,07,24,15,18,24.90
2008,07,24,15,19,24.80
2008,07,24,15,20,24.80
2008,07,24,15,21,24.80
2008,07,24,15,22,24.80
2008,07,24,15,23,24.70
2008,07,24,15,24,24.70
2008,07,24,15,25,24.70
2008,07,24,15,26,24.60
2008,07,24,15,27,24.60
2008,07,24,15,28,24.60
2008,07,24,15,29,24.60
2008,07,24,15,30,24.60
2008,07,24,15,31,24.70
2008,07,24,15,32,24.70
2008,07,24,15,33,24.60
2008,07,24,15,34,24.50
2008,07,24,15,35,24.50
2008,07,24,15,36,24.50
2008,07,24,15,37,24.50
2008,07,24,15,38,24.50
2008,07,24,15,39,24.40
2008,07,24,15,40,24.30
2008,07,24,15,41,24.30
2008,07,24,15,42,24.40
2008,07,24,15,43,24.50
2008,07,24,15,44,24.60
2008,07,24,15,45,24.70
2008,07,24,15,46,24.70
2008,07,24,15,47,24.70
2008,07,24,15,48,24.70
2008,07,24,15,49,24.70
2008,07,24,15,50,24.70
2008,07,24,15,51,24.70
2008,07,24,15,52,24.80
2008,07,24,15,53,24.90
2008,07,24,15,54,24.90
2008,07,24,15,55,25.10
2008,07,24,15,56,25.10
2008,07,24,15,57,25.10
2008,07,24,15,58,25.10
2008,07,24,15,59,25.20
2008,07,24,16,00,25.20
2008,07,24,16,01,25.20
2008,07,24,16,02,25.30
2008,07,24,16,03,25.30
2008,07,24,16,04,25.40
2008,07,24,16,05,25.40
2008,07,24,16,06,25.50
2008,07,24,16,07,25.60
2008,07,24,16,08,25.60
2008,07,24,16,09,25.60
2008,07,24,16,10,25.60
2008,07,24,16,11,25.60
2008,07,24,16,12,25.50
2008,07,24,16,13,25.50
2008,07,24,16,14,25.40
2008,07,24,16,15,25.40
2008,07,24,16,16,25.40
2008,07,24,16,17,25.40
2008,07,24,16,18,25.40
2008,07,24,16,19,25.40
2008,07,24,16,20,25.40
2008,07,24,16,21,25.40
2008,07,24,16,22,25.30
2008,07,24,16,23,25.30
2008,07,24,16,24,25.20
2008,07,24,16,25,25.30
2008,07,24,16,26,25.30
2008,07,24,16,27,25.30
2008,07,24,16,28,25.40
2008,07,24,16,29,25.20
2008,07,24,16,30,25.00
2008,07,24,16,31,25.00
2008,07,24,16,32,25.00
2008,07,24,16,33,25.10
2008,07,24,16,34,25.20
2008,07,24,16,35,25.30
2008,07,24,16,36,25.40
2008,07,24,16,37,25.50
2008,07,24,16,38,25.60
2008,07,24,16,39,25.70
2008,07,24,16,40,25.60
2008,07,24,16,41,25.60
2008,07,24,16,42,25.70
2008,07,24,16,43,25.70
2008,07,24,16,44,25.80
2008,07,24,16,45,25.80
2008,07,24,16,46,25.90
2008,07,24,16,47,25.90
2008,07,24,16,48,25.90
2008,07,24,16,49,26.10
2008,07,24,16,50,26.10
2008,07,24,16,51,26.10
2008,07,24,16,52,26.20
2008,07,24,16,53,26.20
2008,07,24,16,54,26.20
2008,07,24,16,55,26.10
2008,07,24,16,56,26.00
2008,07,24,16,57,25.90
2008,07,24,16,58,25.90
2008,07,24,16,59,25.90
2008,07,24,17,00,25.80
2008,07,24,17,01,25.70
2008,07,24,17,02,25.60
2008,07,24,17,03,25.50
2008,07,24,17,04,25.40
2008,07,24,17,05,25.30
2008,07,24,17,06,25.30
2008,07,24,17,07,25.20
2008,07,24,17,08,25.20
2008,07,24,17,09,25.30
2008,07,24,17,10,25.30
2008,07,24,17,11,25.40
2008,07,24,17,12,25.50
2008,07,24,17,13,25.60
2008,07,24,17,14,25.70
2008,07,24,17,15,25.80
2008,07,24,17,16,25.80
2008,07,24,17,17,25.90
2008,07,24,17,18,25.90
2008,07,24,17,19,25.80
2008,07,24,17,20,25.80
2008,07,24,17,21,25.80
2008,07,24,17,22,25.90
2008,07,24,17,23,25.90
2008,07,24,17,24,25.90
2008,07,24,17,25,25.90